Station LJAC1 - 9410230 - La Jolla, CA Image indicating link to RSS feed of recent meteorological observations for station LJAC1


Conditions at LJAC1 as of
(2:48 pm PDT)
2148 GMT on 06/12/2024:
     

Click on the graph icon in the table below to see a time series plot of the last five days of that observation.

5-day plot - Wind Direction Wind Direction (WDIR):WNW ( 290 deg true )
5-day plot - Wind Speed Wind Speed (WSPD): 5.1 kts
5-day plot - Wind Gust Wind Gust (GST): 6.0 kts
5-day plot - Atmospheric Pressure Atmospheric Pressure (PRES):29.96 in
5-day plot - Water Temperature Water Temperature (WTMP): 66.0 °F
5-day plot - Wind Speed at 10 Meters Wind Speed at 10 meters (WSPD10M): 5.8 kts
5-day plot - Wind Speed at 20 Meters Wind Speed at 20 meters (WSPD20M): 5.8 kts
5-day plot -  Wind Speed, Wind Gust and Atmospheric Pressure Combined plot of Wind Speed, Gust, and Air Pressure
NOS Water Level Observation Network Water Level
Previous observations
TIME
(PDT)
5-day plot - Wind Direction
WDIR
 
5-day plot - Wind Speed
WSPD
kts
5-day plot - Wind Gust
GST
kts
5-day plot - Wave Height
WVHT
ft
5-day plot - Dominant Wave Period
DPD
sec
5-day plot - Average Wave Period
APD
sec
5-day plot - Mean Wave Direction
MWD
 
5-day plot - Atmospheric Pressure
PRES
in
5-day plot - Pressure Tendency
PTDY
in
5-day plot - Air Temperature
ATMP
°F
5-day plot - Water Temperature
WTMP
°F
5-day plot - Dew Point
DEWP
°F
5-day plot - Salinity
SAL
psu
5-day plot - Visibility
VIS
nmi
5-day plot - Tide (above MLLW)
TIDE
ft
2024-06-12 02:42 pmWNW 5.1 6.0----29.96-- 66.0----
2024-06-12 02:36 pmWNW 4.1 7.0----29.96-- 66.0----
2024-06-12 02:30 pm-------29.96- 64.6 66.0----
2024-06-12 02:24 pm-------29.96- 64.8 65.8----
2024-06-12 02:18 pmWNW 2.9 5.1----29.96- 64.9 65.8----
2024-06-12 02:12 pmWNW 4.1 6.0----29.96- 64.4 65.8----
2024-06-12 02:06 pm NW 4.1 6.0----29.97- 64.4 65.8----
2024-06-12 02:00 pmWNW 4.1 6.0----29.97-0.03- 65.8----
2024-06-12 01:54 pmWNW 5.1 6.0----29.97-- 65.8----
2024-06-12 01:48 pmWNW 5.1 5.1----29.97-- 65.8----
2024-06-12 01:42 pmWNW 2.9 5.1----29.97-- 66.0----
2024-06-12 01:36 pmWNW 5.1 6.0----29.97-- 66.0----
2024-06-12 01:30 pmWNW 4.1 6.0----29.98- 64.2 66.2----
2024-06-12 01:24 pmWNW 4.1 6.0----29.98- 64.2 66.2----
2024-06-12 01:18 pmWNW 4.1 5.1----29.98- 64.4 66.2----
2024-06-12 01:12 pmWNW 4.1 6.0----29.98- 64.4 66.2----
2024-06-12 01:06 pmWNW 5.1 6.0----29.98- 64.2 66.0----
2024-06-12 01:00 pmWNW 5.1 7.0----29.98-0.01- 66.0----
2024-06-12 12:54 pmWNW 4.1 5.1----29.98-- 66.0----
2024-06-12 12:48 pmWNW 4.1 5.1----29.99-- 66.0----
2024-06-12 12:42 pmWNW 4.1 5.1----29.99-- 66.0----
2024-06-12 12:36 pm NW 4.1 6.0----29.99-- 65.8----
2024-06-12 12:30 pmWNW 4.1 5.1----29.99- 64.0 65.8----
2024-06-12 12:24 pmWNW 4.1 6.0----29.99- 64.0 65.7----
2024-06-12 12:18 pmWNW 4.1 5.1----29.99- 64.2 65.7----
2024-06-12 12:12 pmWNW 2.9 5.1----29.99- 64.2 65.7----
2024-06-12 12:06 pm NW 4.1 5.1----29.99- 63.7 65.5----
2024-06-12 12:00 pmWNW 4.1 6.0----30.00+0.00 64.0 65.5----
2024-06-12 11:54 amWNW 5.1 6.0----30.00- 63.7 65.3----
2024-06-12 11:48 amWNW 4.1 6.0----30.00-- 65.3----
2024-06-12 11:42 amWNW 4.1 5.1----30.00-- 65.1----
2024-06-12 11:36 am NW 4.1 5.1----30.00-- 65.1----
2024-06-12 11:30 amWNW 4.1 6.0----30.00- 63.7 65.3----
2024-06-12 11:24 amWNW 4.1 6.0----30.00- 63.9 65.3----
2024-06-12 11:18 amWNW 4.1 5.1----30.00-- 65.3----
2024-06-12 11:12 am NW 5.1 6.0----30.00-- 65.3----
2024-06-12 11:06 amWNW 4.1 6.0----30.00-- 65.3----
2024-06-12 11:00 amWNW 4.1 6.0----30.00+0.01- 65.3----
2024-06-12 10:54 amWNW 5.1 6.0----30.00-- 65.3----
2024-06-12 10:48 amWNW 4.1 5.1----30.00-------
2024-06-12 10:42 am NW 2.9 4.1----30.00-------
2024-06-12 10:36 amWNW 2.9 5.1----30.00-------
2024-06-12 10:30 am W 2.9 4.1----30.00- 63.1 65.3----
2024-06-12 10:24 am W 2.9 4.1----30.00- 62.8 65.5----
2024-06-12 10:18 amWNW 2.9 4.1----30.00-- 65.5----
2024-06-12 10:12 am W 2.9 4.1----30.00-- 65.5----
2024-06-12 10:06 am W 2.9 4.1----30.00-- 65.5----
2024-06-12 10:00 am-------30.00+0.02 62.2 65.5----
2024-06-12 09:54 am-------29.99- 62.1 65.5----
2024-06-12 09:48 am W 1.9 4.1----29.99-- 65.5----
2024-06-12 09:42 am W 2.9 4.1----29.99-- 65.5----
2024-06-12 09:36 am W 4.1 4.1----29.99-- 65.5----
2024-06-12 09:30 am W 2.9 4.1----30.00- 61.7-----
2024-06-12 09:24 am W 2.9 4.1----29.99- 61.7-----
2024-06-12 09:18 amWSW 2.9 5.1----29.99-------
2024-06-12 09:12 amWSW 4.1 5.1----29.99-------
2024-06-12 09:06 amWSW 4.1 5.1----29.99-------
2024-06-12 09:00 am-------29.99+0.03 61.7 65.7----
2024-06-12 08:54 am-------29.99- 61.7 65.7----
2024-06-12 08:48 am W 5.1 6.0----29.99- 61.9 65.7----
2024-06-12 08:42 amWSW 2.9 4.1----29.99- 61.9 65.7----
2024-06-12 08:36 amWSW 1.9 4.1----29.99- 61.9 65.7----
2024-06-12 08:30 am SW 2.9 2.9----29.99- 61.9 65.7----
2024-06-12 08:24 amSSW 2.9 4.1----29.98- 61.7 65.7----
2024-06-12 08:18 amSSW 5.1 5.1----29.98-- 65.7----
2024-06-12 08:12 amSSW 4.1 5.1----29.98- 61.3 65.7----
2024-06-12 08:06 am SW 2.9 5.1----29.98- 61.2 65.7----
2024-06-12 08:00 amSSW 4.1 6.0----29.98+0.05- 65.7----
2024-06-12 07:54 am S 5.1 6.0----29.98-- 65.7----
2024-06-12 07:48 amSSW 2.9 5.1----29.98-- 65.7----
2024-06-12 07:42 amSSW 5.1 5.1----29.98-- 65.7----
2024-06-12 07:36 am S 4.1 5.1----29.98-- 65.7----
2024-06-12 07:30 amSSW 1.9 5.1----29.98- 61.0 65.7----
2024-06-12 07:24 amSSW 1.9 4.1----29.98- 61.0 65.7----
2024-06-12 07:18 am S 1.9 2.9----29.98-- 65.7----
2024-06-12 07:12 am- 0.0 2.9----29.98-- 65.7----
2024-06-12 07:06 amSSW 1.9 4.1----29.98-- 65.7----
2024-06-12 07:00 am SW 2.9 4.1----29.97+0.04 61.0 65.7----
2024-06-12 06:54 am SW 1.9 4.1----29.97- 61.2 65.7----
2024-06-12 06:48 am S 1.9 2.9----29.97-- 65.7----
2024-06-12 06:42 am S 2.9 2.9----29.97-- 65.7----
2024-06-12 06:36 am S 1.9 2.9----29.97-- 65.7----
2024-06-12 06:30 am- 0.0 1.9----29.97- 61.0 65.5----
2024-06-12 06:24 am SE 1.0 2.9----29.96- 61.0 65.5----
2024-06-12 06:18 am SE 2.9 4.1----29.96-- 65.5----
2024-06-12 06:12 am SE 4.1 6.0----29.96- 61.0 65.5----
2024-06-12 06:06 am S 5.1 5.1----29.96- 61.0 65.5----
2024-06-12 06:00 am S 2.9 7.0----29.96+0.03 60.8 65.5----
2024-06-12 05:54 amSSW 5.1 6.0----29.96- 60.8 65.7----
2024-06-12 05:48 amSSW 5.1 7.0----29.95- 61.0 65.7----
2024-06-12 05:42 am S 2.9 5.1----29.95- 61.0 65.7----
2024-06-12 05:30 am S 5.1 7.0----29.94- 61.0 65.7----
2024-06-12 05:24 amSSW 4.1 5.1----29.94- 61.0 65.8----
2024-06-12 05:18 am SW 4.1 4.1----29.94- 61.0 65.8----
2024-06-12 05:12 am S 2.9 4.1----29.94- 61.0 65.8----
2024-06-12 05:06 am S 1.9 5.1----29.93- 61.0 65.8----
2024-06-12 05:00 am S 2.9 5.1----29.93+0.00 61.0 65.8----
2024-06-12 04:54 am S 5.1 7.0----29.93- 60.8 65.8----
2024-06-12 04:48 am S 5.1 7.0----29.93-- 66.0----
2024-06-12 04:42 am S 5.1 7.0----29.93-- 66.0----
2024-06-12 04:36 amSSW 6.0 6.0----29.93-- 66.0----
2024-06-12 04:30 am S 5.1 5.1----29.93- 61.0 66.0----
2024-06-12 04:24 amSSW 4.1 6.0----29.93- 60.8 66.0----
2024-06-12 04:18 am S 5.1 6.0----29.93- 61.0 66.0----
2024-06-12 04:12 am S 6.0 8.0----29.93- 61.0 65.8----
2024-06-12 04:06 am S 4.1 5.1----29.93- 61.2 65.8----
2024-06-12 04:00 amSSE 4.1 6.0----29.93+0.01 61.0 65.8----
2024-06-12 03:54 am S 4.1 5.1----29.93- 61.2 65.8----
2024-06-12 03:48 amSSW 2.9 4.1----29.93-- 65.8----
2024-06-12 03:42 am S 4.1 5.1----29.93-- 65.8----
2024-06-12 03:36 am S 5.1 5.1----29.93-- 65.8----
2024-06-12 03:30 am S 4.1 6.0----29.93- 61.3 65.7----
2024-06-12 03:24 am S 5.1 6.0----29.93- 61.3 65.7----
2024-06-12 03:18 am S 5.1 7.0----29.93-- 65.7----
2024-06-12 03:12 am S 5.1 6.0----29.93-- 65.7----
2024-06-12 03:06 amSSW 5.1 6.0----29.92-- 65.7----
2024-06-12 03:00 am SW 2.9 6.0----29.93+0.00 61.5 65.7----
2024-06-12 02:54 amSSW 5.1 6.0----29.93- 61.3 65.7----
2024-06-12 02:48 am SW 5.1 7.0----29.93-- 65.7----
2024-06-12 02:42 amSSW 6.0 8.0----29.93-- 65.7----
2024-06-12 02:36 amSSW 7.0 8.0----29.93-- 65.7----
2024-06-12 02:30 amSSW 7.0 8.0----29.93- 61.3 65.7----
2024-06-12 02:24 amSSW 7.0 8.9----29.93- 61.7 65.5----
2024-06-12 02:18 amSSW 5.1 8.0----29.93- 61.9 65.5----
2024-06-12 02:12 am SW 5.1 7.0----29.93- 61.5 65.5----
2024-06-12 02:06 amSSW 7.0 8.0----29.93- 61.7 65.5----
2024-06-12 02:00 am SW 6.0 8.0----29.93+0.00- 65.5----
2024-06-12 01:54 am S 7.0 8.0----29.93-- 65.3----
2024-06-12 01:48 am S 6.0 8.9----29.92-- 65.3----
2024-06-12 01:42 amSSW 6.0 7.0----29.93-- 65.5----
2024-06-12 01:36 am S 6.0 8.0----29.93-- 65.5----
2024-06-12 01:30 am SW 6.0 8.0----29.93- 61.9 65.5----
2024-06-12 01:24 amSSW 6.0 7.0----29.92- 62.1 65.5----
2024-06-12 01:18 am SW 5.1 7.0----29.93-- 65.5----
2024-06-12 01:12 am SW 5.1 7.0----29.93- 61.9 65.5----
2024-06-12 01:06 am S 6.0 7.0----29.93- 62.1 65.5----
2024-06-12 01:00 amSSW 5.1 6.0----29.92+0.00- 65.5----
2024-06-12 12:54 amSSW 5.1 6.0----29.92-- 65.3----
2024-06-12 12:48 am S 2.9 5.1----29.92- 62.1 65.3----
2024-06-12 12:42 amSSW 2.9 5.1----29.92- 62.2 65.1----
2024-06-12 12:36 amSSW 5.1 6.0----29.93- 62.2 65.1----
2024-06-12 12:30 am S 5.1 7.0----29.93- 62.4 65.1----
2024-06-12 12:24 am S 4.1 5.1----29.93- 62.4 65.1----
2024-06-12 12:18 amSSW 4.1 5.1----29.93-------
2024-06-12 12:12 am SW 2.9 6.0----29.93- 62.4 64.8----
2024-06-12 12:06 am SW 4.1 5.1----29.93- 62.4 64.6----
2024-06-12 12:00 amSSW 2.9 5.1----29.93+0.02 62.4 64.2----
2024-06-11 11:54 pmSSW 4.1 5.1----29.93- 62.4 64.2----
2024-06-11 11:48 pm S 4.1 4.1----29.93-------
2024-06-11 11:42 pm SW 1.9 4.1----29.93- 62.4 63.5----
2024-06-11 11:36 pmSSW 2.9 4.1----29.93- 62.6 63.1----
2024-06-11 11:30 pm SW 2.9 4.1----29.93-- 62.8----
2024-06-11 11:24 pm SW 2.9 4.1----29.93-- 62.4----
2024-06-11 11:18 pm SW 2.9 5.1----29.93-- 62.6----
2024-06-11 11:12 pmWSW 4.1 5.1----29.93- 62.6 62.2----
2024-06-11 11:06 pmWSW 2.9 4.1----29.93- 62.6 62.8----
2024-06-11 11:00 pm W 2.9 4.1----29.92+0.02 62.4 62.6----
2024-06-11 10:54 pmWSW 4.1 5.1----29.92- 62.4 63.1----
2024-06-11 10:48 pm SW 1.0 2.9----29.92-- 63.3----
2024-06-11 10:42 pmWSW 1.9 4.1----29.92-- 63.5----
2024-06-11 10:36 pm SW 2.9 4.1----29.92-- 63.7----
2024-06-11 10:30 pmWSW 2.9 4.1----29.93-- 64.2----
2024-06-11 10:24 pmWSW 1.9 4.1----29.93-- 64.9----
2024-06-11 10:18 pm-------29.93- 62.4 65.5----
2024-06-11 10:12 pm-------29.93- 62.4 65.8----
2024-06-11 10:06 pm-------29.92- 62.4 65.8----
2024-06-11 10:00 pmWSW 1.9 2.9----29.92+0.03 62.4 66.0----
2024-06-11 09:54 pmWSW 1.9 2.9----29.92- 62.6 66.0----
2024-06-11 09:48 pmWSW 1.9 2.9----29.92- 62.6 66.2----
2024-06-11 09:42 pmWSW 1.9 1.9----29.92- 62.6 66.2----
2024-06-11 09:36 pm SW 1.0 1.9----29.92- 62.4 66.4----
2024-06-11 09:30 pm SW 1.0 1.9----29.92- 62.4 66.4----
2024-06-11 09:24 pm- 0.0 1.0----29.91- 62.6 66.4----
2024-06-11 09:18 pm- 0.0 1.9----29.91-- 66.4----
2024-06-11 09:12 pmSSW 1.9 2.9----29.91- 62.4 66.4----
2024-06-11 09:06 pm SW 1.9 2.9----29.91- 62.4 66.4----
2024-06-11 09:00 pm S 1.9 2.9----29.91+0.02- 66.4----
2024-06-11 08:54 pmWSW 1.9 4.1----29.91-- 66.4----
2024-06-11 08:48 pm SW 2.9 4.1----29.91-- 66.4----
2024-06-11 08:42 pmWSW 1.9 2.9----29.91- 62.4 66.4----
2024-06-11 08:36 pmSSW 1.0 2.9----29.91- 62.4 66.4----
2024-06-11 08:30 pm SW 1.9 2.9----29.91-- 66.4----
2024-06-11 08:24 pmSSW 1.9 2.9----29.91-- 66.4----
2024-06-11 08:18 pm SW 2.9 4.1----29.91- 62.6 66.4----
2024-06-11 08:12 pmWSW 2.9 4.1----29.90- 62.2 66.4----
2024-06-11 08:06 pmWSW 2.9 4.1----29.90- 62.2 66.4----
2024-06-11 08:00 pm W 4.1 4.1----29.90+0.00 62.4 66.4----
2024-06-11 07:54 pm W 2.9 5.1----29.90- 62.2 66.4----
2024-06-11 07:48 pmWNW 4.1 5.1----29.90-- 66.4----
2024-06-11 07:42 pmWSW 4.1 5.1----29.90-- 66.4----
2024-06-11 07:36 pm W 2.9 5.1----29.90-- 66.4----
2024-06-11 07:30 pmWSW 4.1 5.1----29.90- 62.2 66.4----
2024-06-11 07:24 pm W 5.1 6.0----29.90- 62.2 66.4----
2024-06-11 07:18 pm W 4.1 5.1----29.90- 62.4 66.4----
2024-06-11 07:12 pm W 4.1 5.1----29.90- 62.2 66.4----
2024-06-11 07:06 pm W 4.1 5.1----29.90- 62.4 66.4----
2024-06-11 07:00 pm W 4.1 5.1----29.90-0.01 62.6 66.4----
2024-06-11 06:54 pm W 4.1 5.1----29.89- 62.4 66.4----
2024-06-11 06:48 pm W 4.1 4.1----29.89-- 66.4----
2024-06-11 06:42 pm W 2.9 4.1----29.89-- 66.4----
2024-06-11 06:36 pm W 4.1 5.1----29.89-- 66.4----
2024-06-11 06:30 pm W 1.9 4.1----29.89-------
2024-06-11 06:24 pmWSW 4.1 5.1----29.89-------
2024-06-11 06:18 pm W 1.9 4.1----29.89-------
2024-06-11 06:12 pm W 2.9 4.1----29.89-------
2024-06-11 06:06 pm W 2.9 4.1----29.89-------
2024-06-11 06:00 pm-------29.89-0.03 62.8 66.2----
2024-06-11 05:54 pm-------29.89- 62.8 66.2----
2024-06-11 05:48 pm- 0.0 1.0----29.89-- 66.2----
2024-06-11 05:42 pm- 0.0 2.9----29.89-- 66.2----
2024-06-11 05:36 pm W 1.9 4.1----29.89-- 66.2----
2024-06-11 05:30 pm W 4.1 4.1----29.89-- 66.2----
2024-06-11 05:24 pm W 2.9 4.1----29.89-- 66.2----
2024-06-11 05:18 pm W 2.9 4.1----29.89- 62.4 66.2----
2024-06-11 05:12 pm W 2.9 5.1----29.89- 62.4 66.0----
2024-06-11 05:06 pm W 2.9 4.1----29.90- 62.4 66.0----
2024-06-11 05:00 pm-------29.90-0.04 62.4 66.0----
2024-06-11 04:54 pm-------29.90- 62.4 66.0----
2024-06-11 04:48 pm W 2.9 4.1----29.90-------
2024-06-11 04:42 pmWSW 2.9 4.1----29.90-------
2024-06-11 04:36 pmWSW 4.1 5.1----29.91-------
2024-06-11 04:30 pm SW 2.9 4.1----29.91-- 65.3----
2024-06-11 04:24 pmWSW 4.1 5.1----29.91-- 65.3----
2024-06-11 04:18 pmWSW 4.1 5.1----29.91- 61.9 65.3----
2024-06-11 04:12 pmWSW 5.1 7.0----29.91- 61.7 65.5----
2024-06-11 04:06 pm SW 5.1 6.0----29.91- 61.7 65.5----
2024-06-11 04:00 pm SW 4.1 6.0----29.91-0.02 61.7 65.7----
2024-06-11 03:54 pmWSW 5.1 6.0----29.91- 61.7 65.8----
2024-06-11 03:48 pmWSW 5.1 6.0----29.91- 61.7 66.0----
2024-06-11 03:42 pmWSW 5.1 6.0----29.91- 61.7 66.0----
2024-06-11 03:36 pm W 4.1 6.0----29.92- 61.7 66.2----
2024-06-11 03:30 pm W 4.1 5.1----29.92- 61.7 66.2----
2024-06-11 03:24 pm W 4.1 5.1----29.92- 61.5 66.2----
2024-06-11 03:18 pm W 5.1 5.1----29.92-- 66.2----
2024-06-11 03:12 pm W 5.1 6.0----29.92- 61.5 66.2----
2024-06-11 03:06 pmWSW 5.1 6.0----29.92- 61.7 66.0----
2024-06-11 03:00 pm W 5.1 6.0----29.92-0.01- 66.0----
2024-06-11 02:54 pm W 6.0 8.0----29.92-- 66.0----